FW0844 Weather Reports


Display with metric or nautical units.
time (UTC)temp
F
wind
direction
speed
MPH
gust
MPH
rain 1hr
in
rain 24hr
in
rain mn
in
humidity
%
barometer
mb
20191019181635 55 227 0.0 5.0 0.00 0.00 0.00 53 1019.3
20191019181333 56 207 3.0 5.0 0.00 0.00 0.00 53 1018.6
20191019181039 55 202 2.0 6.0 0.00 0.00 0.00 57 1019.5
20191019180817 55 231 2.0 6.0 0.00 0.00 0.00 56 1018.6
20191019180548 55 252 1.0 6.0 0.00 0.00 0.00 56 1019.5
20191019180313 55 178 1.0 4.0 0.00 0.00 0.00 56 1018.7
20191019180010 55 138 1.0 4.0 0.00 0.00 0.00 56 1019.6
20191019175807 55 138 1.0 5.0 0.00 0.00 0.00 56 1018.8
20191019175520 55 190 1.0 5.0 0.00 0.00 0.00 56 1019.8
20191019175323 56 199 2.0 5.0 0.00 0.00 0.00 55 1019.0
20191019175023 55 200 2.0 5.0 0.00 0.00 0.00 56 1019.8
20191019174817 56 198 1.0 4.0 0.00 0.00 0.00 59 1018.9
20191019174545 55 211 0.0 4.0 0.00 0.00 0.00 61 1019.8
20191019174331 55 211 1.0 4.0 0.00 0.00 0.00 58 1018.9
20191019174036 55 219 1.0 4.0 0.00 0.00 0.00 59 1020.0
20191019173814 55 213 1.0 4.0 0.00 0.00 0.00 64 1019.2
20191019173543 54 213 1.0 4.0 0.00 0.00 0.00 60 1020.3
20191019173309 55 244 1.0 4.0 0.00 0.00 0.00 63 1019.3
20191019173145 54 245 1.0 4.0 0.00 0.00 0.00 62 1020.0
20191019172824 55 105 2.0 4.0 0.00 0.00 0.00 58 1019.2
20191019172558 54 125 1.0 4.0 0.00 0.00 0.00 58 1020.1
20191019172318 55 126 2.0 4.0 0.00 0.00 0.00 60 1019.3
20191019172003 54 127 1.0 4.0 0.00 0.00 0.00 59 1020.3
20191019171813 55 220 2.0 3.0 0.00 0.00 0.00 57 1019.3
20191019171511 54 228 2.0 5.0 0.00 0.00 0.00 56 1020.2
20191019171308 55 251 0.0 5.0 0.00 0.00 0.00 64 1019.4
20191019171023 54 254 0.0 5.0 0.00 0.00 0.00 63 1020.3
20191019170822 54 254 2.0 5.0 0.00 0.00 0.00 60 1019.4
20191019170309 54 208 3.0 4.0 0.00 0.00 0.00 59 1019.4
20191019170149 53 199 2.0 4.0 0.00 0.00 0.00 62 1020.4
20191019165824 54 244 0.0 4.0 0.00 0.00 0.00 64 1019.4
20191019165601 53 206 1.0 4.0 0.00 0.00 0.00 65 1020.4
20191019165320 53 90 1.0 4.0 0.00 0.00 0.00 66 1019.5
20191019165006 53 90 2.0 4.0 0.00 0.00 0.00 65 1020.5
20191019164816 53 80 3.0 4.0 0.00 0.00 0.00 63 1019.6
20191019164522 53 54 1.0 4.0 0.00 0.00 0.00 62 1020.7
20191019164310 54 231 1.0 3.0 0.00 0.00 0.00 64 1019.9
20191019164015 53 265 1.0 3.0 0.00 0.00 0.00 63 1020.8
20191019163824 53 139 0.0 3.0 0.00 0.00 0.00 65 1020.0
20191019163524 53 139 0.0 3.0 0.00 0.00 0.00 63 1020.9
20191019163320 53 139 1.0 4.0 0.00 0.00 0.00 65 1020.0
20191019163103 53 140 0.0 4.0 0.00 0.00 0.00 66 1021.1
20191019162808 53 139 2.0 4.0 0.00 0.00 0.00 64 1020.1
20191019162541 53 68 1.0 4.0 0.00 0.00 0.00 63 1021.1
20191019162331 53 200 1.0 4.0 0.00 0.00 0.00 67 1020.2
20191019162048 53 198 0.0 4.0 0.00 0.00 0.00 65 1021.0
20191019161815 53 219 1.0 4.0 0.00 0.00 0.00 66 1020.2
20191019161653 53 219 1.0 4.0 0.00 0.00 0.00 64 1021.3
20191019161310 53 256 2.0 4.0 0.00 0.00 0.00 64 1020.3
20191019160823 53 208 1.0 2.0 0.00 0.00 0.00 67 1020.3
20191019160320 52 207 0.0 4.0 0.00 0.00 0.00 70 1020.3
20191019160051 52 207 0.0 4.0 0.00 0.00 0.00 68 1021.3
20191019155806 52 207 2.0 4.0 0.00 0.00 0.00 70 1020.3
20191019155535 52 206 1.0 4.0 0.00 0.00 0.00 69 1021.2
20191019155328 52 206 0.0 4.0 0.00 0.00 0.00 69 1020.4
20191019155042 51 206 1.0 4.0 0.00 0.00 0.00 71 1021.3
20191019154812 52 217 1.0 3.0 0.00 0.00 0.00 73 1020.5
20191019154702 51 219 1.0 3.0 0.00 0.00 0.00 72 1021.4
20191019154307 51 288 1.0 3.0 0.00 0.00 0.00 74 1020.6
20191019154057 51 273 0.0 4.0 0.00 0.00 0.00 73 1021.5
20191019153818 51 209 0.0 4.0 0.00 0.00 0.00 76 1020.6
20191019153312 51 240 0.0 3.0 0.00 0.00 0.00 76 1020.6
20191019153008 50 217 1.0 3.0 0.00 0.00 0.00 74 1021.6
20191019152807 50 221 1.0 3.0 0.00 0.00 0.00 78 1020.7
20191019152516 50 186 0.0 3.0 0.00 0.00 0.00 77 1021.5
20191019152322 50 213 1.0 3.0 0.00 0.00 0.00 76 1020.7
20191019152022 50 202 0.0 3.0 0.00 0.00 0.00 78 1021.6
20191019151816 50 220 0.0 2.0 0.00 0.00 0.00 77 1020.7
20191019151548 49 220 0.0 4.0 0.00 0.00 0.00 79 1021.6
20191019151329 49 214 0.0 4.0 0.00 0.00 0.00 81 1020.6
20191019151037 48 214 0.0 4.0 0.00 0.00 0.00 79 1021.5
20191019150814 49 239 0.0 3.0 0.00 0.00 0.00 81 1020.7
20191019150544 48 239 0.0 3.0 0.00 0.00 0.00 81 1021.6
20191019150309 48 239 0.0 3.0 0.00 0.00 0.00 80 1020.7
20191019150011 47 239 0.0 3.0 0.00 0.00 0.00 81 1021.6
20191019145823 47 236 0.0 3.0 0.00 0.00 0.00 83 1020.7
20191019145512 47 236 0.0 3.0 0.00 0.00 0.00 83 1021.5
20191019145317 47 236 0.0 4.0 0.00 0.00 0.00 84 1020.7
20191019145017 46 236 0.0 4.0 0.00 0.00 0.00 83 1021.5
20191019144811 46 308 1.0 4.0 0.00 0.00 0.00 83 1020.6
20191019144547 46 219 0.0 4.0 0.00 0.00 0.00 83 1021.7
20191019144325 46 269 1.0 2.0 0.00 0.00 0.00 85 1020.7
20191019144032 45 269 0.0 2.0 0.00 0.00 0.00 86 1021.7
20191019143810 45 269 0.0 2.0 0.00 0.00 0.00 87 1020.7
20191019143546 44 269 0.0 2.0 0.00 0.00 0.00 87 1021.6
20191019143333 44 269 1.0 3.0 0.00 0.00 0.00 88 1020.6
20191019143132 44 269 0.0 3.0 0.00 0.00 0.00 88 1021.5
20191019142817 44 269 1.0 3.0 0.00 0.00 0.00 90 1020.6
20191019142554 43 227 0.0 3.0 0.00 0.00 0.00 89 1021.5
20191019142311 43 227 1.0 4.0 0.00 0.00 0.00 90 1020.7
20191019142100 42 227 0.0 4.0 0.00 0.00 0.00 90 1021.6
20191019141805 42 227 1.0 4.0 0.00 0.00 0.00 91 1020.8
20191019141502 42 220 1.0 4.0 0.00 0.00 0.00 91 1021.7
20191019141320 42 220 1.0 3.0 0.00 0.00 0.00 92 1020.8
20191019141010 41 227 0.0 2.0 0.00 0.00 0.00 93 1021.7
20191019140814 41 227 1.0 2.0 0.00 0.00 0.00 94 1020.7
20191019140330 41 227 0.0 2.0 0.00 0.00 0.00 95 1020.7
20191019140103 40 227 0.0 2.0 0.00 0.00 0.00 95 1021.7
20191019135815 40 227 0.0 2.0 0.00 0.00 0.00 96 1020.6
20191019135554 40 227 0.0 3.0 0.00 0.00 0.00 96 1021.6
20191019135309 40 227 0.0 4.0 0.00 0.00 0.00 96 1020.7
20191019135059 39 227 0.0 4.0 0.00 0.00 0.00 96 1021.6
20191019134822 39 227 2.0 4.0 0.00 0.00 0.00 97 1020.7
20191019134316 39 230 0.0 1.0 0.00 0.00 0.00 97 1020.7
20191019134003 38 230 0.0 1.0 0.00 0.00 0.00 97 1021.7
20191019133810 38 230 0.0 2.0 0.00 0.00 0.00 97 1020.6
20191019133510 38 230 0.0 2.0 0.00 0.00 0.00 97 1021.7
20191019133304 38 230 0.0 2.0 0.00 0.00 0.00 97 1020.8
20191019133028 37 230 0.0 1.0 0.00 0.00 0.00 97 1021.8
20191019132818 37 230 0.0 2.0 0.00 0.00 0.00 97 1020.8
20191019132528 36 230 0.0 2.0 0.00 0.00 0.00 97 1021.9
20191019132332 36 230 0.0 2.0 0.00 0.00 0.00 97 1020.9
20191019132031 36 230 0.0 2.0 0.00 0.00 0.00 97 1021.7
20191019131826 36 230 0.0 2.0 0.00 0.00 0.00 97 1020.8
20191019131555 35 230 0.0 2.0 0.00 0.00 0.00 97 1021.7
20191019131309 35 235 0.0 2.0 0.00 0.00 0.00 96 1020.8
20191019131049 35 235 0.0 2.0 0.00 0.00 0.00 96 1021.6
20191019130804 35 235 0.0 2.0 0.00 0.00 0.00 97 1020.8
20191019130552 34 235 0.0 2.0 0.00 0.00 0.00 96 1021.7
20191019130321 35 235 0.0 2.0 0.00 0.00 0.00 97 1020.8
20191019130021 34 261 0.0 2.0 0.00 0.00 0.00 97 1021.8
20191019125814 34 264 0.0 3.0 0.00 0.00 0.00 96 1020.8
20191019125522 34 199 0.0 3.0 0.00 0.00 0.00 96 1021.8
20191019125308 34 199 1.0 3.0 0.00 0.00 0.00 96 1020.8
20191019125023 33 231 0.0 3.0 0.00 0.00 0.00 97 1021.6
20191019124822 34 165 0.0 3.0 0.00 0.00 0.00 96 1020.7
20191019124700 33 165 0.0 3.0 0.00 0.00 0.00 96 1021.6
20191019124306 33 165 0.0 3.0 0.00 0.00 0.00 96 1020.7
20191019124037 32 164 0.0 3.0 0.00 0.00 0.00 96 1021.6
20191019123817 33 154 0.0 2.0 0.00 0.00 0.00 96 1020.7
20191019123544 32 77 0.0 1.0 0.00 0.00 0.00 96 1021.5
20191019123312 32 77 0.0 2.0 0.00 0.00 0.00 96 1020.5
20191019123126 32 76 0.0 2.0 0.00 0.00 0.00 96 1021.5
20191019122807 32 72 0.0 2.0 0.00 0.00 0.00 96 1020.5
20191019122323 32 59 0.0 1.0 0.00 0.00 0.00 96 1020.5
20191019122005 31 59 0.0 0.0 0.00 0.00 0.00 96 1021.4
20191019121817 32 59 0.0 0.0 0.00 0.00 0.00 96 1020.5
20191019121522 31 59 0.0 0.0 0.00 0.00 0.00 96 1021.6
20191019121312 31 59 0.0 0.0 0.00 0.00 0.00 96 1020.5
20191019121027 31 59 0.0 0.0 0.00 0.00 0.00 96 1021.5
20191019120828 31 59 0.0 0.0 0.00 0.00 0.00 96 1020.6
20191019120317 30 59 0.0 0.0 0.00 0.00 0.00 96 1020.5
20191019120142 30 59 0.0 0.0 0.00 0.00 0.00 96 1021.4
20191019115812 30 59 0.0 0.0 0.00 0.00 0.00 96 1020.5
20191019115308 30 59 0.0 0.0 0.00 0.00 0.00 96 1020.5
20191019115008 30 59 0.0 0.0 0.00 0.00 0.00 96 1021.5
20191019114804 30 59 0.0 0.0 0.00 0.00 0.00 96 1020.5
20191019114528 30 59 0.0 0.0 0.00 0.00 0.00 96 1021.3
20191019114321 30 59 0.0 0.0 0.00 0.00 0.00 96 1020.5
20191019114034 29 59 0.0 0.0 0.00 0.00 0.00 96 1021.3
20191019113808 30 59 0.0 0.0 0.00 0.00 0.00 96 1020.5
20191019113541 29 59 0.0 0.0 0.00 0.00 0.00 96 1021.3
20191019113305 30 59 0.0 0.0 0.00 0.00 0.00 96 1020.5
20191019113206 29 59 0.0 0.0 0.00 0.00 0.00 96 1021.4
20191019112820 30 59 0.0 0.0 0.00 0.00 0.00 96 1020.5
20191019112611 30 59 0.0 0.0 0.00 0.00 0.00 96 1021.3
20191019112315 30 59 0.0 0.0 0.00 0.00 0.00 96 1020.5
20191019111811 30 59 0.0 0.0 0.00 0.00 0.00 96 1020.4
20191019111510 30 59 0.0 0.0 0.00 0.00 0.00 96 1021.3
20191019111307 30 59 0.0 0.0 0.00 0.00 0.00 96 1020.4
20191019111021 30 59 0.0 0.0 0.00 0.00 0.00 96 1021.2
20191019110824 30 59 0.0 0.0 0.00 0.00 0.00 96 1020.4
20191019110314 30 59 0.0 0.0 0.00 0.00 0.00 96 1020.2
20191019110136 30 59 0.0 0.0 0.00 0.00 0.00 96 1021.2
20191019105809 31 59 0.0 0.0 0.00 0.00 0.00 96 1020.3
20191019105603 30 59 0.0 0.0 0.00 0.00 0.00 96 1021.2
20191019105306 31 59 0.0 0.0 0.00 0.00 0.00 96 1020.4
20191019105005 30 59 0.0 0.0 0.00 0.00 0.00 96 1021.2
20191019104822 31 59 0.0 0.0 0.00 0.00 0.00 96 1020.3
20191019104518 30 59 0.0 0.0 0.00 0.00 0.00 96 1021.1
20191019104316 30 59 0.0 0.0 0.00 0.00 0.00 96 1020.2
20191019104022 30 59 0.0 0.0 0.00 0.00 0.00 96 1021.1
20191019103832 30 59 0.0 0.0 0.00 0.00 0.00 96 1020.2
20191019103531 30 59 0.0 0.0 0.00 0.00 0.00 96 1021.0
20191019103327 30 59 0.0 0.0 0.00 0.00 0.00 96 1020.2
20191019103104 30 59 0.0 0.0 0.00 0.00 0.00 96 1021.1
20191019102816 30 59 0.0 0.0 0.00 0.00 0.00 96 1020.3
20191019102601 30 59 0.0 0.0 0.00 0.00 0.00 96 1021.1
20191019102313 30 59 0.0 0.0 0.00 0.00 0.00 96 1020.2
20191019102104 29 59 0.0 0.0 0.00 0.00 0.00 96 1021.0
20191019101808 30 59 0.0 0.0 0.00 0.00 0.00 96 1020.1
20191019101504 29 59 0.0 0.0 0.00 0.00 0.00 96 1021.0
20191019101323 30 59 0.0 0.0 0.00 0.00 0.00 96 1020.2
20191019101018 29 59 0.0 0.0 0.00 0.00 0.00 96 1021.1
20191019100818 30 59 0.0 0.0 0.00 0.00 0.00 96 1020.1
20191019100306 30 59 0.0 0.0 0.00 0.00 0.00 96 1020.1
20191019100147 29 59 0.0 0.0 0.00 0.00 0.00 96 1020.9
20191019095822 30 59 0.0 0.0 0.00 0.00 0.00 96 1020.1
20191019095554 29 59 0.0 0.0 0.00 0.00 0.00 96 1020.9
20191019095319 30 59 0.0 0.0 0.00 0.00 0.00 96 1020.1
20191019094816 30 59 0.0 0.0 0.00 0.00 0.00 96 1020.1
20191019094513 29 59 0.0 0.0 0.00 0.00 0.00 96 1021.0
20191019094313 30 59 0.0 0.0 0.00 0.00 0.00 96 1020.1
20191019094020 29 59 0.0 0.0 0.00 0.00 0.00 96 1020.9
20191019093828 30 59 0.0 0.0 0.00 0.00 0.00 95 1020.2
20191019093529 29 59 0.0 0.0 0.00 0.00 0.00 95 1021.0
20191019093323 30 59 0.0 0.0 0.00 0.00 0.00 95 1020.0
20191019093113 29 59 0.0 0.0 0.00 0.00 0.00 95 1020.8
20191019092808 30 59 0.0 0.0 0.00 0.00 0.00 95 1019.9
20191019092542 29 59 0.0 0.0 0.00 0.00 0.00 95 1020.6
20191019092333 30 59 0.0 0.0 0.00 0.00 0.00 95 1019.8
20191019092049 29 59 0.0 0.0 0.00 0.00 0.00 95 1020.6
20191019091818 30 59 0.0 0.0 0.00 0.00 0.00 95 1019.7
20191019091635 30 59 0.0 0.0 0.00 0.00 0.00 95 1020.7
20191019091313 30 59 0.0 0.0 0.00 0.00 0.00 95 1019.8
20191019091005 30 59 0.0 0.0 0.00 0.00 0.00 96 1020.7
20191019090809 30 59 0.0 0.0 0.00 0.00 0.00 95 1019.9
20191019090327 30 59 0.0 0.0 0.00 0.00 0.00 95 1019.7
20191019090058 30 59 0.0 0.0 0.00 0.00 0.00 96 1020.5
20191019085814 30 59 0.0 0.0 0.00 0.00 0.00 96 1019.6
20191019085546 30 59 0.0 0.0 0.00 0.00 0.00 96 1020.5
20191019085311 30 59 0.0 0.0 0.00 0.00 0.00 96 1019.7
20191019085058 30 59 0.0 0.0 0.00 0.00 0.00 96 1020.6
20191019084808 30 59 0.0 0.0 0.00 0.00 0.00 96 1019.7
20191019084502 30 59 0.0 0.0 0.00 0.00 0.00 96 1020.5
20191019084305 30 59 0.0 0.0 0.00 0.00 0.00 96 1019.7
20191019084011 30 59 0.0 0.0 0.00 0.00 0.00 95 1020.5
20191019083817 30 59 0.0 0.0 0.00 0.00 0.00 95 1019.7
20191019083532 30 59 0.0 0.0 0.00 0.00 0.00 95 1020.3
20191019083313 30 59 0.0 0.0 0.00 0.00 0.00 95 1019.6
20191019083106 30 59 0.0 0.0 0.00 0.00 0.00 95 1020.5
20191019082828 30 59 0.0 0.0 0.00 0.00 0.00 95 1019.7
20191019082545 30 59 0.0 0.0 0.00 0.00 0.00 95 1020.4
20191019082318 30 59 0.0 0.0 0.00 0.00 0.00 95 1019.6
20191019082052 30 59 0.0 0.0 0.00 0.00 0.00 95 1020.4
20191019081813 30 59 0.0 0.0 0.00 0.00 0.00 95 1019.7
20191019081745 30 59 0.0 0.0 0.00 0.00 0.00 95 1020.3
20191019081308 30 59 0.0 0.0 0.00 0.00 0.00 95 1019.5
20191019080820 30 59 0.0 0.0 0.00 0.00 0.00 95 1019.6
20191019080319 31 59 0.0 0.0 0.00 0.00 0.00 95 1019.6
20191019080111 30 59 0.0 0.0 0.00 0.00 0.00 95 1020.4
20191019075806 30 59 0.0 0.0 0.00 0.00 0.00 95 1019.6
20191019075541 30 59 0.0 0.0 0.00 0.00 0.00 95 1020.5
20191019075332 30 59 0.0 0.0 0.00 0.00 0.00 95 1019.7
20191019075048 30 59 0.0 0.0 0.00 0.00 0.00 95 1020.5
20191019074818 30 59 0.0 0.0 0.00 0.00 0.00 95 1019.7
20191019074638 30 59 0.0 0.0 0.00 0.00 0.00 95 1020.5
20191019074313 30 59 0.0 0.0 0.00 0.00 0.00 95 1019.7
20191019074002 30 59 0.0 0.0 0.00 0.00 0.00 95 1020.5
20191019073809 30 59 0.0 0.0 0.00 0.00 0.00 95 1019.7
20191019073511 30 59 0.0 0.0 0.00 0.00 0.00 95 1020.6
20191019073324 31 59 0.0 0.0 0.00 0.00 0.00 95 1019.6
20191019073034 30 59 0.0 0.0 0.00 0.00 0.00 95 1020.4
20191019072820 31 59 0.0 0.0 0.00 0.00 0.00 95 1019.6
20191019072539 30 59 0.0 0.0 0.00 0.00 0.00 95 1020.5
20191019072306 31 59 0.0 0.0 0.00 0.00 0.00 95 1019.8
20191019072036 30 59 0.0 0.0 0.00 0.00 0.00 95 1020.5
20191019071830 31 59 0.0 0.0 0.00 0.00 0.00 95 1019.6
20191019071616 30 59 0.0 0.0 0.00 0.00 0.00 95 1020.4
20191019071319 31 59 0.0 0.0 0.00 0.00 0.00 95 1019.6
20191019071054 30 59 0.0 0.0 0.00 0.00 0.00 95 1020.5
20191019070816 31 59 0.0 0.0 0.00 0.00 0.00 95 1019.6
20191019070313 31 59 0.0 0.0 0.00 0.00 0.00 95 1019.6
20191019070040 31 59 0.0 0.0 0.00 0.00 0.00 95 1020.4
20191019065828 31 59 0.0 0.0 0.00 0.00 0.00 95 1019.6
20191019065536 31 59 0.0 0.0 0.00 0.00 0.00 95 1020.5
20191019065322 31 59 0.0 0.0 0.00 0.00 0.00 95 1019.6
20191019065039 31 59 0.0 0.0 0.00 0.00 0.00 95 1020.4
20191019064807 31 59 0.0 0.0 0.00 0.00 0.00 95 1019.7
20191019064614 31 59 0.0 0.0 0.00 0.00 0.00 95 1020.5
20191019064323 31 59 0.0 0.0 0.00 0.00 0.00 95 1019.8
20191019064058 31 59 0.0 0.0 0.00 0.00 0.00 95 1020.5
20191019063818 32 59 0.0 0.0 0.00 0.00 0.00 95 1019.8
20191019063314 32 59 0.0 0.0 0.00 0.00 0.00 95 1019.8
20191019063010 31 59 0.0 0.0 0.00 0.00 0.00 95 1020.8
20191019062807 32 59 0.0 0.0 0.00 0.00 0.00 95 1019.9
20191019062528 32 59 0.0 0.0 0.00 0.00 0.00 95 1020.6
20191019062325 32 59 0.0 0.0 0.00 0.00 0.00 95 1019.9
20191019062027 32 59 0.0 0.0 0.00 0.00 0.00 95 1020.7
20191019061820 32 59 0.0 0.0 0.00 0.00 0.00 95 1019.8
20191019061612 31 59 0.0 0.0 0.00 0.00 0.00 95 1020.6
20191019061305 32 59 0.0 0.0 0.00 0.00 0.00 95 1019.9
20191019061043 32 59 0.0 0.0 0.00 0.00 0.00 95 1020.6
20191019060819 32 59 0.0 0.0 0.00 0.00 0.00 95 1019.9
20191019060546 32 59 0.0 0.0 0.00 0.00 0.00 95 1020.6
20191019060316 32 59 0.0 0.0 0.00 0.00 0.00 95 1019.9
20191019060019 32 59 0.0 0.0 0.00 0.00 0.00 95 1020.6
20191019055811 32 59 0.0 0.0 0.00 0.00 0.00 95 1019.9
20191019055522 32 59 0.0 0.0 0.00 0.00 0.00 95 1020.6
20191019055306 32 59 0.0 0.0 0.00 0.00 0.00 95 1019.9
20191019055023 32 59 0.0 0.0 0.00 0.00 0.00 95 1020.5
20191019054820 33 59 0.0 0.0 0.00 0.00 0.00 95 1019.8
20191019054625 32 59 0.0 0.0 0.00 0.00 0.00 95 1020.6
20191019054307 33 59 0.0 0.0 0.00 0.00 0.00 95 1019.8
20191019054043 32 59 0.0 0.0 0.00 0.00 0.00 95 1020.6
20191019053831 33 59 0.0 0.0 0.00 0.00 0.00 95 1019.8
20191019053551 32 59 0.0 0.0 0.00 0.00 0.00 95 1020.6
20191019053317 33 59 0.0 0.0 0.00 0.00 0.00 95 1020.0
20191019053137 32 59 0.0 0.0 0.00 0.00 0.00 95 1020.6
20191019052812 33 59 0.0 0.0 0.00 0.00 0.00 95 1020.1
20191019052308 33 59 0.0 0.0 0.00 0.00 0.00 95 1019.8
20191019052008 32 59 0.0 0.0 0.00 0.00 0.00 95 1020.6
20191019051824 33 59 0.0 0.0 0.00 0.00 0.00 95 1019.8
20191019051527 32 59 0.0 0.0 0.00 0.00 0.00 95 1020.6
20191019051320 33 59 0.0 0.0 0.00 0.00 0.00 95 1019.9
20191019051029 32 59 0.0 0.0 0.00 0.00 0.00 95 1020.6
20191019050806 33 59 0.0 0.0 0.00 0.00 0.00 95 1019.9
20191019050318 33 59 0.0 0.0 0.00 0.00 0.00 95 1019.9
20191019050210 33 59 0.0 0.0 0.00 0.00 0.00 95 1020.6
20191019045814 33 59 0.0 0.0 0.00 0.00 0.00 95 1019.8
20191019045510 33 59 0.0 1.0 0.00 0.00 0.00 95 1020.6
20191019045310 33 59 0.0 1.0 0.00 0.00 0.00 95 1019.9
20191019045016 33 59 0.0 1.0 0.00 0.00 0.00 95 1020.6
20191019044806 33 59 0.0 0.0 0.00 0.00 0.00 95 1019.9
20191019044551 32 59 0.0 0.0 0.00 0.00 0.00 95 1020.6
20191019044322 33 59 0.0 0.0 0.00 0.00 0.00 95 1020.0
20191019044031 32 59 0.0 0.0 0.00 0.00 0.00 95 1020.6
20191019043810 33 59 0.0 0.0 0.00 0.00 0.00 95 1019.9
20191019043554 32 59 0.0 0.0 0.00 0.00 0.00 95 1020.6
20191019043306 33 59 0.0 0.0 0.00 0.00 0.00 95 1019.9
20191019043156 32 59 0.0 0.0 0.00 0.00 0.00 95 1020.6
20191019042823 33 59 0.0 0.0 0.00 0.00 0.00 95 1019.8
20191019042603 32 59 0.0 0.0 0.00 0.00 0.00 95 1020.7
20191019042318 33 59 0.0 0.0 0.00 0.00 0.00 95 1020.0
20191019042007 32 59 0.0 0.0 0.00 0.00 0.00 95 1020.7
20191019041815 33 59 0.0 0.0 0.00 0.00 0.00 94 1019.9
20191019041540 32 59 0.0 0.0 0.00 0.00 0.00 94 1020.6
20191019041310 33 59 0.0 0.0 0.00 0.00 0.00 94 1019.9
20191019041020 32 59 0.0 0.0 0.00 0.00 0.00 94 1020.6
20191019040824 33 59 0.0 0.0 0.00 0.00 0.00 94 1019.9
20191019040312 33 59 0.0 0.0 0.00 0.00 0.00 95 1019.9
20191019040116 32 59 0.0 0.0 0.00 0.00 0.00 95 1020.6
20191019035805 33 59 0.0 0.0 0.00 0.00 0.00 94 1019.9
20191019035604 32 59 0.0 0.0 0.00 0.00 0.00 94 1020.6
20191019035322 33 59 0.0 0.0 0.00 0.00 0.00 94 1019.9
20191019035005 32 59 0.0 0.0 0.00 0.00 0.00 94 1020.4
20191019034818 33 59 0.0 0.0 0.00 0.00 0.00 94 1019.8
20191019034525 32 59 0.0 0.0 0.00 0.00 0.00 94 1020.6
20191019034313 33 59 0.0 0.0 0.00 0.00 0.00 94 1019.9
20191019034033 33 59 0.0 0.0 0.00 0.00 0.00 94 1020.5
20191019033829 33 59 0.0 0.0 0.00 0.00 0.00 94 1019.8
20191019033541 33 59 0.0 0.0 0.00 0.00 0.00 94 1020.5
20191019033326 33 59 0.0 0.0 0.00 0.00 0.00 94 1019.7
20191019033108 33 59 0.0 0.0 0.00 0.00 0.00 94 1020.3
20191019032810 33 59 0.0 0.0 0.00 0.00 0.00 94 1019.6
20191019032547 33 59 0.0 0.0 0.00 0.00 0.00 94 1020.4
20191019032307 33 59 0.0 0.0 0.00 0.00 0.00 94 1019.7
20191019032057 33 59 0.0 0.0 0.00 0.00 0.00 94 1020.4
20191019031824 33 59 0.0 0.0 0.00 0.00 0.00 94 1019.7
20191019031503 33 59 0.0 0.0 0.00 0.00 0.00 94 1020.3
20191019031318 33 59 0.0 0.0 0.00 0.00 0.00 94 1019.7
20191019031009 33 59 0.0 0.0 0.00 0.00 0.00 94 1020.3
20191019030814 33 59 0.0 0.0 0.00 0.00 0.00 94 1019.7
20191019030331 33 59 0.0 0.0 0.00 0.00 0.00 94 1019.8
20191019030132 33 59 0.0 0.0 0.00 0.00 0.00 94 1020.4
20191019025818 33 59 0.0 0.0 0.00 0.00 0.00 94 1019.7
20191019025555 33 59 0.0 0.0 0.00 0.00 0.00 94 1020.3
20191019025313 34 59 0.0 0.0 0.00 0.00 0.00 94 1019.8
20191019025102 33 59 0.0 0.0 0.00 0.00 0.00 94 1020.5
20191019024807 34 59 0.0 1.0 0.00 0.00 0.00 94 1019.7
20191019024502 33 59 0.0 1.0 0.00 0.00 0.00 94 1020.4
20191019024323 34 59 0.0 1.0 0.00 0.00 0.00 94 1019.7
20191019024012 33 59 0.0 1.0 0.00 0.00 0.00 94 1020.4
20191019023820 34 59 0.0 0.0 0.00 0.00 0.00 94 1019.8
20191019023521 33 59 0.0 0.0 0.00 0.00 0.00 94 1020.5
20191019023315 34 59 0.0 0.0 0.00 0.00 0.00 94 1019.9
20191019023049 33 59 0.0 0.0 0.00 0.00 0.00 93 1020.5
20191019022829 34 59 0.0 0.0 0.00 0.00 0.00 93 1019.9
20191019022536 33 59 0.0 0.0 0.00 0.00 0.00 93 1020.6
20191019022326 34 59 0.0 0.0 0.00 0.00 0.00 93 1019.9
20191019022050 33 59 0.0 0.0 0.00 0.00 0.00 93 1020.5
20191019021810 34 59 0.0 0.0 0.00 0.00 0.00 93 1019.8
20191019021623 34 59 0.0 0.0 0.00 0.00 0.00 93 1020.6
20191019021325 34 59 0.0 0.0 0.00 0.00 0.00 93 1019.9
20191019021058 34 59 0.0 1.0 0.00 0.00 0.00 93 1020.5
20191019020820 34 59 0.0 1.0 0.00 0.00 0.00 93 1019.9
20191019020315 34 59 0.0 1.0 0.00 0.00 0.00 93 1019.9
20191019020110 34 59 0.0 1.0 0.00 0.00 0.00 93 1020.4
20191019015831 34 59 0.0 1.0 0.00 0.00 0.00 93 1019.9
20191019015538 34 59 0.0 0.0 0.00 0.00 0.00 93 1020.4
20191019015326 34 59 0.0 0.0 0.00 0.00 0.00 93 1019.7
20191019015043 34 59 0.0 0.0 0.00 0.00 0.00 93 1020.4
20191019014812 35 59 0.0 0.0 0.00 0.00 0.00 93 1019.9
20191019014552 34 59 0.0 0.0 0.00 0.00 0.00 93 1020.6
20191019014307 35 59 0.0 0.0 0.00 0.00 0.00 92 1019.9
20191019014058 34 59 0.0 0.0 0.00 0.00 0.00 92 1020.4
20191019013822 35 59 0.0 0.0 0.00 0.00 0.00 93 1019.8
20191019013504 34 59 0.0 0.0 0.00 0.00 0.00 93 1020.3
20191019013318 35 59 0.0 0.0 0.00 0.00 0.00 93 1019.7
20191019013019 34 59 0.0 0.0 0.00 0.00 0.00 93 1020.3
20191019012813 35 59 0.0 0.0 0.00 0.00 0.00 92 1019.6
20191019012520 34 59 0.0 0.0 0.00 0.00 0.00 92 1020.3
20191019012309 35 59 0.0 0.0 0.00 0.00 0.00 92 1019.7
20191019012028 35 59 0.0 0.0 0.00 0.00 0.00 92 1020.1
20191019011818 35 59 0.0 0.0 0.00 0.00 0.00 92 1019.6
20191019011600 35 59 0.0 0.0 0.00 0.00 0.00 92 1020.1
20191019011333 36 59 0.0 0.0 0.00 0.00 0.00 92 1019.5
20191019011040 35 59 0.0 0.0 0.00 0.00 0.00 92 1020.0
20191019010820 36 59 0.0 0.0 0.00 0.00 0.00 92 1019.5
20191019010552 35 59 0.0 0.0 0.00 0.00 0.00 92 1020.0
20191019010317 36 59 0.0 0.0 0.00 0.00 0.00 92 1019.5
20191019010029 35 59 0.0 0.0 0.00 0.00 0.00 92 1020.0
20191019005811 36 59 0.0 0.0 0.00 0.00 0.00 91 1019.5
20191019005522 35 59 0.0 0.0 0.00 0.00 0.00 91 1020.1
20191019005307 36 59 0.0 0.0 0.00 0.00 0.00 91 1019.6
20191019005023 36 59 0.0 0.0 0.00 0.00 0.00 91 1020.1
20191019004820 36 59 0.0 0.0 0.00 0.00 0.00 91 1019.5
20191019004604 36 59 0.0 0.0 0.00 0.00 0.00 91 1020.1
20191019004306 36 59 0.0 0.0 0.00 0.00 0.00 91 1019.5
20191019004039 36 59 0.0 0.0 0.00 0.00 0.00 91 1020.1
20191019003829 37 59 0.0 0.0 0.00 0.00 0.00 91 1019.5
20191019003547 36 59 0.0 0.0 0.00 0.00 0.00 91 1020.0
20191019003315 37 59 0.0 0.0 0.00 0.00 0.00 91 1019.3
20191019003131 36 59 0.0 0.0 0.00 0.00 0.00 91 1020.0
20191019002810 37 59 0.0 0.0 0.00 0.00 0.00 91 1019.3
20191019002325 37 59 0.0 0.0 0.00 0.00 0.00 90 1019.4
20191019002007 37 59 0.0 0.0 0.00 0.00 0.00 90 1019.9
20191019001819 37 59 0.0 0.0 0.00 0.00 0.00 90 1019.3
20191019001521 37 59 0.0 0.0 0.00 0.00 0.00 90 1019.8
20191019001313 37 59 0.0 0.0 0.00 0.00 0.00 90 1019.3
20191019001028 37 59 0.0 0.0 0.00 0.00 0.00 89 1019.8
20191019000827 38 59 0.0 0.0 0.00 0.00 0.00 89 1019.2
20191019000314 38 59 0.0 0.0 0.00 0.00 0.00 89 1019.2
20191019000137 37 59 0.0 0.0 0.00 0.00 0.00 89 1019.7
20191018235809 38 59 0.0 0.0 0.00 0.00 0.00 89 1019.2
20191018235612 38 59 0.0 0.0 0.00 0.00 0.00 89 1019.8
20191018235322 38 59 0.0 0.0 0.00 0.00 0.00 88 1019.2
20191018234817 39 59 0.0 0.0 0.00 0.00 0.00 88 1019.1
20191018234545 38 59 0.0 0.0 0.00 0.00 0.00 88 1019.8
20191018234311 39 59 0.0 0.0 0.00 0.00 0.00 87 1019.1
20191018234019 38 59 0.0 0.0 0.00 0.00 0.00 87 1019.6
20191018233825 39 59 0.0 0.0 0.00 0.00 0.00 87 1019.0
20191018233526 39 59 0.0 0.0 0.00 0.00 0.00 87 1019.6
20191018233319 40 59 0.0 0.0 0.00 0.00 0.00 86 1019.0
20191018233113 39 59 0.0 0.0 0.00 0.00 0.00 86 1019.6
20191018232833 40 59 0.0 0.0 0.00 0.00 0.00 85 1019.1
20191018232543 39 59 0.0 0.0 0.00 0.00 0.00 85 1019.6
20191018232327 40 59 0.0 0.0 0.00 0.00 0.00 85 1019.0
20191018232042 40 59 0.0 0.0 0.00 0.00 0.00 85 1019.6
20191018231812 41 59 0.0 0.0 0.00 0.00 0.00 85 1019.1
20191018231614 40 59 0.0 0.0 0.00 0.00 0.00 85 1019.7
20191018231307 41 59 0.0 0.0 0.00 0.00 0.00 84 1019.0
20191018231055 40 59 0.0 0.0 0.00 0.00 0.00 83 1019.5
20191018230821 41 59 0.0 0.0 0.00 0.00 0.00 83 1019.0
20191018230319 42 59 0.0 0.0 0.00 0.00 0.00 81 1018.9
20191018230030 41 59 0.0 0.0 0.00 0.00 0.00 81 1019.4
20191018225834 42 59 0.0 0.0 0.00 0.00 0.00 80 1018.8
20191018225533 42 59 0.0 0.0 0.00 0.00 0.00 80 1019.4
20191018225329 42 59 0.0 0.0 0.00 0.00 0.00 80 1018.7
20191018225042 42 59 0.0 0.0 0.00 0.00 0.00 79 1019.3
20191018224817 43 59 0.0 0.0 0.00 0.00 0.00 79 1018.8
20191018224618 43 59 0.0 0.0 0.00 0.00 0.00 79 1019.3
20191018224313 43 59 0.0 1.0 0.00 0.00 0.00 78 1018.8
20191018224100 43 59 0.0 1.0 0.00 0.00 0.00 78 1019.2
20191018223807 44 59 0.0 1.0 0.00 0.00 0.00 77 1018.6
20191018223504 44 59 0.0 1.0 0.00 0.00 0.00 77 1018.9
20191018223324 44 59 0.0 0.0 0.00 0.00 0.00 76 1018.4
20191018223033 44 59 0.0 0.0 0.00 0.00 0.00 75 1019.0
20191018222820 45 59 0.0 0.0 0.00 0.00 0.00 74 1018.4
20191018222530 45 59 0.0 1.0 0.00 0.00 0.00 74 1018.9
20191018222317 45 59 0.0 3.0 0.00 0.00 0.00 73 1018.4
20191018222032 45 59 0.0 3.0 0.00 0.00 0.00 73 1019.0
20191018221833 46 59 1.0 3.0 0.00 0.00 0.00 73 1018.4
20191018221644 45 79 0.0 2.0 0.00 0.00 0.00 72 1018.9
20191018221321 46 79 0.0 2.0 0.00 0.00 0.00 72 1018.2
20191018221051 46 79 0.0 2.0 0.00 0.00 0.00 72 1018.8
20191018220816 46 79 0.0 2.0 0.00 0.00 0.00 71 1018.2
20191018220606 46 79 0.0 4.0 0.00 0.00 0.00 71 1018.9
20191018220313 47 79 0.0 4.0 0.00 0.00 0.00 70 1018.4
20191018220044 46 79 0.0 4.0 0.00 0.00 0.00 70 1018.8
20191018215810 47 79 1.0 5.0 0.00 0.00 0.00 69 1018.3
20191018215527 47 92 0.0 5.0 0.00 0.00 0.00 69 1018.9
20191018215321 47 92 1.0 6.0 0.00 0.00 0.00 69 1018.3
20191018215041 47 85 1.0 6.0 0.00 0.00 0.00 69 1019.0
20191018214808 48 342 1.0 6.0 0.00 0.00 0.00 68 1018.4
20191018214641 47 342 2.0 6.0 0.00 0.00 0.00 68 1019.0
20191018214322 48 12 1.0 4.0 0.00 0.00 0.00 68 1018.4
20191018214052 47 93 0.0 10.0 0.00 0.00 0.00 67 1018.8
20191018213818 48 93 2.0 10.0 0.00 0.00 0.00 67 1018.3
20191018213314 48 84 2.0 8.0 0.00 0.00 0.00 66 1018.3
20191018213008 48 66 1.0 8.0 0.00 0.00 0.00 66 1018.8
20191018212810 48 92 3.0 8.0 0.00 0.00 0.00 65 1018.2
20191018212522 48 84 2.0 7.0 0.00 0.00 0.00 65 1018.7
20191018212306 48 85 2.0 6.0 0.00 0.00 0.00 65 1018.1
20191018212028 48 344 1.0 6.0 0.00 0.00 0.00 65 1018.5
20191018211821 49 355 2.0 6.0 0.00 0.00 0.00 64 1017.9
20191018211556 48 13 2.0 6.0 0.00 0.00 0.00 64 1018.6
20191018211307 49 109 2.0 7.0 0.00 0.00 0.00 64 1018.1
20191018211038 49 360 1.0 9.0 0.00 0.00 0.00 64 1018.6
20191018210832 49 100 2.0 9.0 0.00 0.00 0.00 64 1018.2
20191018210547 48 64 3.0 9.0 0.00 0.00 0.00 64 1018.8
20191018210320 49 50 3.0 6.0 0.00 0.00 0.00 65 1018.1
20191018210018 48 42 1.0 6.0 0.00 0.00 0.00 65 1018.7
20191018205816 49 91 2.0 6.0 0.00 0.00 0.00 65 1018.1
20191018205517 48 346 2.0 7.0 0.00 0.00 0.00 65 1018.7
20191018205312 48 344 2.0 9.0 0.00 0.00 0.00 64 1018.2
20191018205044 48 86 1.0 9.0 0.00 0.00 0.00 64 1018.7
20191018204830 49 69 3.0 9.0 0.00 0.00 0.00 63 1018.3
20191018204708 48 51 3.0 9.0 0.00 0.00 0.00 64 1018.8
20191018204316 49 65 3.0 10.0 0.00 0.00 0.00 62 1018.3
20191018204045 49 43 2.0 10.0 0.00 0.00 0.00 62 1018.8
20191018203810 49 70 4.0 10.0 0.00 0.00 0.00 62 1018.2
20191018203552 49 88 4.0 10.0 0.00 0.00 0.00 62 1018.6
20191018203306 50 69 4.0 11.0 0.00 0.00 0.00 63 1017.9
20191018202824 50 132 4.0 11.0 0.00 0.00 0.00 61 1018.0
20191018202508 50 81 5.0 11.0 0.00 0.00 0.00 60 1018.4
20191018202321 50 171 1.0 10.0 0.00 0.00 0.00 62 1017.8
20191018202021 50 125 2.0 10.0 0.00 0.00 0.00 60 1018.4
20191018201816 50 67 2.0 10.0 0.00 0.00 0.00 62 1017.9
20191018201536 50 86 2.0 10.0 0.00 0.00 0.00 61 1018.5
20191018201333 50 105 3.0 12.0 0.00 0.00 0.00 61 1017.9
20191018201038 50 92 3.0 12.0 0.00 0.00 0.00 61 1018.5
20191018200828 51 79 5.0 12.0 0.00 0.00 0.00 60 1017.9
20191018200544 50 144 5.0 12.0 0.00 0.00 0.00 60 1018.5
20191018200317 51 36 5.0 9.0 0.00 0.00 0.00 60 1017.9
20191018200007 50 117 3.0 9.0 0.00 0.00 0.00 62 1018.5
20191018195813 51 76 3.0 12.0 0.00 0.00 0.00 62 1018.0
20191018195514 50 153 4.0 12.0 0.00 0.00 0.00 60 1018.5
20191018195309 51 92 4.0 12.0 0.00 0.00 0.00 61 1017.9
20191018195024 50 116 5.0 12.0 0.00 0.00 0.00 61 1018.5
20191018194824 51 47 5.0 10.0 0.00 0.00 0.00 61 1017.9
20191018194606 50 103 1.0 10.0 0.00 0.00 0.00 61 1018.4
20191018194320 51 101 2.0 10.0 0.00 0.00 0.00 61 1017.8
20191018194037 50 333 2.0 10.0 0.00 0.00 0.00 62 1018.4
20191018193834 51 78 3.0 9.0 0.00 0.00 0.00 62 1017.7
20191018193550 50 80 1.0 9.0 0.00 0.00 0.00 62 1018.3
20191018193319 51 81 3.0 9.0 0.00 0.00 0.00 62 1017.8
20191018193145 50 129 2.0 9.0 0.00 0.00 0.00 63 1018.4
20191018192815 51 135 3.0 10.0 0.00 0.00 0.00 62 1017.8
20191018192558 50 93 4.0 10.0 0.00 0.00 0.00 60 1018.4
20191018192327 51 97 3.0 10.0 0.00 0.00 0.00 62 1017.8
20191018192001 50 5 4.0 10.0 0.00 0.00 0.00 62 1018.3
20191018191821 51 301 2.0 11.0 0.00 0.00 0.00 63 1017.6
20191018191517 50 101 2.0 13.0 0.00 0.00 0.00 64 1018.3
20191018191316 50 84 4.0 13.0 0.00 0.00 0.00 62 1017.6
20191018191022 50 88 4.0 13.0 0.00 0.00 0.00 63 1018.2
20191018190813 50 103 4.0 9.0 0.00 0.00 0.00 61 1017.7
20191018190322 50 107 4.0 9.0 0.00 0.00 0.00 61 1017.6
20191018190219 50 85 4.0 9.0 0.00 0.00 0.00 62 1018.2
20191018185816 50 54 4.0 9.0 0.00 0.00 0.00 62 1017.5
20191018185604 50 126 4.0 9.0 0.00 0.00 0.00 63 1018.2
20191018185310 50 293 2.0 9.0 0.00 0.00 0.00 62 1017.5
20191018185003 50 79 4.0 9.0 0.00 0.00 0.00 62 1018.1
20191018184825 50 45 4.0 9.0 0.00 0.00 0.00 64 1017.5
20191018184513 49 101 4.0 9.0 0.00 0.00 0.00 63 1018.1
20191018184321 49 49 3.0 10.0 0.00 0.00 0.00 63 1017.5
20191018184019 49 135 2.0 10.0 0.00 0.00 0.00 66 1018.1
20191018183817 49 53 4.0 10.0 0.00 0.00 0.00 62 1017.5
20191018183533 49 120 5.0 10.0 0.00 0.00 0.00 63 1018.1
20191018183332 49 107 4.0 10.0 0.00 0.00 0.00 63 1017.4
20191018183108 49 80 3.0 10.0 0.00 0.00 0.00 63 1018.1
20191018182829 50 101 5.0 9.0 0.00 0.00 0.00 63 1017.5
20191018182551 49 30 4.0 11.0 0.00 0.00 0.00 63 1018.0
20191018182314 50 74 3.0 11.0 0.00 0.00 0.00 61 1017.5
20191018182055 49 44 3.0 11.0 0.00 0.00 0.00 62 1018.2
20191018181809 50 42 3.0 12.0 0.00 0.00 0.00 65 1017.5